Hourly Data Report for June 10, 2004

TORONTO CITY
ONTARIO

43°40'00.000" N
79°24'00.000" W
112.50 m
6158355
71508
XTO

Download Data

Hourly Data (June 2004)
Hourly Data Report for June 10, 2004
TIME
LST
Temp Definition
°C
Dew Point Definition
°C
Rel Hum Definition
%
Precip. Amount Definition
mm

Wind Dir Definition
10's deg

Wind Spd Definition
km/h
Visibility Definition
km
Stn Press Definition
kPa
Hmdx Definition


Wind Chill Definition


Weather Definition


00:00 19.7 16.0 79   LegendMM LegendMM LegendMM 100.13     LegendNANA
01:00 19.8 15.9 78   LegendMM LegendMM LegendMM 100.11     LegendNANA
02:00 19.5 15.7 79   LegendMM LegendMM LegendMM 100.12     LegendNANA
03:00 18.9 14.5 76   LegendMM LegendMM LegendMM 100.15     LegendNANA
04:00 16.2 14.4 89   LegendMM LegendMM LegendMM 100.23     LegendNANA
05:00 16.0 14.6 91   LegendMM LegendMM LegendMM 100.30     LegendNANA
06:00 14.9 13.0 88   LegendMM LegendMM LegendMM 100.37     LegendNANA
07:00 14.1 11.5 84   LegendMM LegendMM LegendMM 100.40     LegendNANA
08:00 12.9 11.5 91   LegendMM LegendMM LegendMM 100.46     LegendNANA
09:00 13.3 11.0 86   LegendMM LegendMM LegendMM 100.46     LegendNANA
10:00 13.4 11.0 85   LegendMM LegendMM LegendMM 100.48     LegendNANA
11:00 14.4 11.1 81   LegendMM LegendMM LegendMM 100.51     LegendNANA
12:00 15.3 10.3 72   LegendMM LegendMM LegendMM 100.47     LegendNANA
13:00 15.7 10.1 69   LegendMM LegendMM LegendMM 100.43     LegendNANA
14:00 14.6 8.9 69   LegendMM LegendMM LegendMM 100.38     LegendNANA
15:00 15.9 9.1 64   LegendMM LegendMM LegendMM 100.33     LegendNANA
16:00 16.0 7.8 58   LegendMM LegendMM LegendMM 100.29     LegendNANA
17:00 15.8 7.9 59   LegendMM LegendMM LegendMM 100.30     LegendNANA
18:00 15.6 7.9 60   LegendMM LegendMM LegendMM 100.29     LegendNANA
19:00 15.6 7.5 58   LegendMM LegendMM LegendMM 100.28     LegendNANA
20:00 14.9 7.6 62   LegendMM LegendMM LegendMM 100.28     LegendNANA
21:00 15.1 7.5 60   LegendMM LegendMM LegendMM 100.32     LegendNANA
22:00 14.3 8.0 66   LegendMM LegendMM LegendMM 100.33     LegendNANA
23:00 14.1 8.2 68   LegendMM LegendMM LegendMM 100.31     LegendNANA

Notes on Data Quality.

Legend

  • E = Estimated
  • M = Missing
  • NA = Not Available*
  • [empty] = Indicates an unobserved value
Date modified: